Location: Recife
(8.0585°S, 34.8848°W)
Time: 12:50:23
(UTC-03:00)

Tiros 1 - Pass Details

Date: 14 April 2026
Orbit: 618 x 648 km, 48.4° (Epoch: 11 May)

Event Time Altitude Azimuth Distance (km) Brightness Sun altitude
Rises 06:45:40 0° 213° (SSW) 2,895 10.1 19.5°
Reaches altitude 10° 06:48:02 10° 208° (SSW) 1,984 9.3 20.1°
Maximum altitude 06:52:29 55° 130° (SE) 742 8.1 21.2°
Drops below altitude 10° 06:56:55 10° 52° (NE) 1,969 11.0 22.2°
Sets 06:59:15 0° 48° (NE) 2,872 11.5 22.8°
